Greensboro, GA

1:35 PM EDT on July 27, 2017 (GMT -0400)
Greensboro

Weather History for K3J7 - December, 2012

Change the Weather History Date:

Friday, December 14, 2012

  Actual Average (KDBN) Record (KDBN)
Temperature  
Mean Temperature 46 °F -  
Max Temperature 59 °F 63 °F 79 °F (1949)
Min Temperature 32 °F 38 °F 15 °F (1962)
Degree Days  
Heating Degree Days 20    
Moisture  
Dew Point 34 °F    
Average Humidity 71    
Maximum Humidity 100    
Minimum Humidity 39    
Precipitation  
Precipitation 0.00 in - - ()
Sea Level Pressure  
Sea Level Pressure 30.27 in    
Wind  
Wind Speed 0 mph (NE)    
Max Wind Speed 6 mph    
Max Gust Speed -    
Visibility 10 miles    
Events      
Averages and records for this station are not official NWS values.
T = Trace of Precipitation, MM = Missing Value Source: NWS Daily Summary

Daily Weather History Graph

Daily Weather History Graph

Search for Another Location

Airport or City:

Trip Planner

Search our weather history database for the weather conditions in past years. The results will help you decide how hot, cold, wet, or windy it might be!

Date:

Astronomy

Dec. 14, 2012 Rise Set
Actual Time 7:29 AM EST 5:25 PM EST
Civil Twilight 7:01 AM EST 5:53 PM EST
Nautical Twilight 6:30 AM EST 6:24 PM EST
Astronomical Twilight 6:00 AM EST 6:54 PM EST
Moon 8:35 AM EST (12/14) 7:13 PM EST (12/14)
Length of Visible Light 10h 51m
Length of Day
9h 56m
Waxing Crescent, 3% of the Moon is Illuminated
Dec 14
Waxing Crescent
Dec 20
First Quarter
Dec 28
Full
Jan 4
Last Quarter
Jan 11
New

Hourly Weather History & Observations

Time (EST) Temp. Windchill Dew Point Humidity Pressure Visibility Wind Dir Wind Speed Gust Speed Precip Events Conditions
12:15 AM 37.4 °F - 35.6 °F 93% 30.30 in 10.0 mi Calm Calm - N/A   Clear
12:35 AM 35.6 °F - 33.8 °F 93% 30.29 in 10.0 mi Calm Calm - N/A   Clear
12:55 AM 37.4 °F - 35.6 °F 93% 30.29 in 10.0 mi Calm Calm - N/A   Clear
1:15 AM 37.4 °F - 35.6 °F 93% 30.29 in 10.0 mi Calm Calm - N/A   Clear
1:35 AM 37.4 °F - 35.6 °F 93% 30.29 in 10.0 mi Calm Calm - N/A   Clear
1:55 AM 37.4 °F - 33.8 °F 87% 30.29 in 10.0 mi Calm Calm - N/A   Clear
2:15 AM 37.4 °F - 33.8 °F 87% 30.29 in 10.0 mi Calm Calm - N/A   Clear
2:35 AM 37.4 °F - 33.8 °F 87% 30.28 in 10.0 mi Calm Calm - N/A   Clear
2:55 AM 35.6 °F - 33.8 °F 93% 30.29 in 10.0 mi Calm Calm - N/A   Clear
3:15 AM 35.6 °F - 33.8 °F 93% 30.29 in 10.0 mi Calm Calm - N/A   Clear
3:35 AM 35.6 °F - 33.8 °F 93% 30.30 in 10.0 mi Calm Calm - N/A   Clear
3:55 AM 35.6 °F - 33.8 °F 93% 30.30 in 10.0 mi Calm Calm - N/A   Clear
4:15 AM 33.8 °F - 32.0 °F 93% 30.31 in 10.0 mi Calm Calm - N/A   Clear
4:35 AM 33.8 °F - 32.0 °F 93% 30.30 in 10.0 mi Calm Calm - N/A   Clear
4:55 AM 33.8 °F - 32.0 °F 93% 30.31 in 10.0 mi Calm Calm - N/A   Clear
5:15 AM 33.8 °F - 32.0 °F 93% 30.31 in 10.0 mi Calm Calm - N/A   Clear
5:35 AM 33.8 °F - 32.0 °F 93% 30.30 in 10.0 mi Calm Calm - N/A   Clear
5:55 AM 33.8 °F - 32.0 °F 93% 30.30 in 10.0 mi Calm Calm - N/A   Clear
6:15 AM 33.8 °F - 32.0 °F 93% 30.30 in 10.0 mi Calm Calm - N/A   Clear
6:35 AM 32.0 °F - 32.0 °F 100% 30.31 in 10.0 mi Calm Calm - N/A   Clear
6:55 AM 33.8 °F - 32.0 °F 93% 30.33 in 10.0 mi Calm Calm - N/A   Clear
7:15 AM 33.8 °F 30.8 °F 32.0 °F 93% 30.35 in 10.0 mi NNW 3.5 mph - N/A   Clear
7:35 AM 32.0 °F - 32.0 °F 100% 30.35 in 10.0 mi Calm Calm - N/A   Clear
7:55 AM 32.0 °F - 32.0 °F 100% 30.34 in 10.0 mi Calm Calm - N/A   Clear
8:15 AM 33.8 °F - 32.0 °F 93% 30.35 in 10.0 mi Calm Calm - N/A   Clear
8:35 AM 37.4 °F - 32.0 °F 81% 30.35 in 10.0 mi Calm Calm - N/A   Clear
8:55 AM 39.2 °F - 32.0 °F 75% 30.35 in 10.0 mi Calm Calm - N/A   Clear
9:15 AM 41.0 °F - 32.0 °F 70% 30.36 in 10.0 mi Calm Calm - N/A   Clear
9:35 AM 42.8 °F - 32.0 °F 66% 30.36 in 10.0 mi Calm Calm - N/A   Clear
9:55 AM 44.6 °F - 33.8 °F 66% 30.36 in 10.0 mi Calm Calm - N/A   Clear
10:15 AM 46.4 °F 45.2 °F 33.8 °F 62% 30.36 in 10.0 mi ENE 3.5 mph - N/A   Clear
10:35 AM 48.2 °F - 35.6 °F 62% 30.36 in 10.0 mi Calm Calm - N/A   Clear
10:55 AM 50.0 °F - 35.6 °F 58% 30.36 in 10.0 mi Calm Calm - N/A   Clear
11:15 AM 50.0 °F - 35.6 °F 58% 30.35 in 10.0 mi Calm Calm - N/A   Clear
11:35 AM 51.8 °F - 35.6 °F 54% 30.34 in 10.0 mi Calm Calm - N/A   Clear
11:55 AM 51.8 °F - 35.6 °F 54% 30.32 in 10.0 mi Calm Calm - N/A   Clear
12:15 PM 53.6 °F - 35.6 °F 51% 30.31 in 10.0 mi Calm Calm - N/A   Clear
12:35 PM 53.6 °F - 35.6 °F 51% 30.28 in 10.0 mi Calm Calm - N/A   Clear
12:55 PM 53.6 °F - 35.6 °F 51% 30.27 in 10.0 mi NNE 3.5 mph - N/A   Clear
1:15 PM 55.4 °F - 35.6 °F 47% 30.26 in 10.0 mi ENE 4.6 mph - N/A   Clear
1:35 PM 55.4 °F - 35.6 °F 47% 30.23 in 10.0 mi East 5.8 mph - N/A   Clear
1:55 PM 55.4 °F - 35.6 °F 47% 30.24 in 10.0 mi Calm Calm - N/A   Clear
2:15 PM 59.0 °F - 35.6 °F 42% 30.23 in 10.0 mi ENE 3.5 mph - N/A   Clear
2:35 PM 59.0 °F - 35.6 °F 42% 30.22 in 10.0 mi Calm Calm - N/A   Clear
2:55 PM 59.0 °F - 35.6 °F 42% 30.21 in 10.0 mi Calm Calm - N/A   Clear
3:15 PM 59.0 °F - 35.6 °F 42% 30.21 in 10.0 mi Calm Calm - N/A   Clear
3:35 PM 59.0 °F - 35.6 °F 42% 30.21 in 10.0 mi Calm Calm - N/A   Clear
3:55 PM 59.0 °F - 35.6 °F 42% 30.20 in 10.0 mi Calm Calm - N/A   Clear
4:15 PM 59.0 °F - 33.8 °F 39% 30.20 in 10.0 mi Calm Calm - N/A   Clear
4:35 PM 59.0 °F - 35.6 °F 42% 30.20 in 10.0 mi Calm Calm - N/A   Clear
5:15 PM 53.6 °F - 35.6 °F 51% 30.20 in 10.0 mi Calm Calm - N/A   Clear
5:35 PM 51.8 °F - 35.6 °F 54% 30.20 in 10.0 mi Calm Calm - N/A   Clear
5:55 PM 51.8 °F - 35.6 °F 54% 30.20 in 10.0 mi Calm Calm - N/A   Clear
6:15 PM 50.0 °F - 35.6 °F 58% 30.20 in 10.0 mi Calm Calm - N/A   Clear
6:35 PM 50.0 °F - 35.6 °F 58% 30.20 in 10.0 mi Calm Calm - N/A   Clear
6:55 PM 50.0 °F - 35.6 °F 58% 30.21 in 10.0 mi Calm Calm - N/A   Clear
7:15 PM 50.0 °F - 35.6 °F 58% 30.21 in 10.0 mi Calm Calm - N/A   Clear
7:35 PM 46.4 °F - 35.6 °F 66% 30.22 in 10.0 mi Calm Calm - N/A   Clear
7:55 PM 44.6 °F - 35.6 °F 71% 30.21 in 10.0 mi Calm Calm - N/A   Clear
8:15 PM 44.6 °F - 35.6 °F 71% 30.21 in 10.0 mi Calm Calm - N/A   Clear
8:35 PM 46.4 °F - 35.6 °F 66% 30.21 in 10.0 mi Calm Calm - N/A   Clear
8:55 PM 46.4 °F - 35.6 °F 66% 30.22 in 10.0 mi Calm Calm - N/A   Clear
9:15 PM 46.4 °F - 35.6 °F 66% 30.22 in 10.0 mi Calm Calm - N/A   Clear
9:35 PM 44.6 °F - 35.6 °F 71% 30.22 in 10.0 mi Calm Calm - N/A   Clear
9:55 PM 46.4 °F - 35.6 °F 66% 30.22 in 10.0 mi Calm Calm - N/A   Clear
10:15 PM 46.4 °F - 35.6 °F 66% 30.23 in 10.0 mi Calm Calm - N/A   Clear
10:35 PM 44.6 °F - 35.6 °F 71% 30.23 in 10.0 mi Calm Calm - N/A   Clear
10:55 PM 41.0 °F - 35.6 °F 81% 30.21 in 10.0 mi Calm Calm - N/A   Clear
11:15 PM 42.8 °F - 35.6 °F 76% 30.20 in 10.0 mi Calm Calm - N/A   Clear
11:35 PM 44.6 °F - 35.6 °F 71% 30.19 in 10.0 mi Calm Calm - N/A   Clear
11:55 PM 44.6 °F - 35.6 °F 71% 30.19 in 10.0 mi Calm Calm - N/A   Clear